Regional Weather Roundup
Issued by NWS

Home | Current Version | Previous Version | Text Only | Print | Product List | Glossary On
Versions: 1 2 3 4 5 6 7 8 9 10 11 12 13 14 15 16 17 18 19 20 21 22 23 24 25 26 27 28 29 30 31 32 33 34 35 36 37 38 39 40 41 42 43 44 45 46 47 48 49 50
000
ASUS43 KOAX 031910
RWRNE

WEATHER ROUNDUP FOR NEBRASKA
NATIONAL WEATHER SERVICE OMAHA NE
200 PM CDT THU SEP 03 2015

NOTES: SATELLITE DATA IS BEING USED TO AUGMENT CLOUD COVER ABOVE
       12000 FEET.
       "FAIR" INDICATES FEW OR NO CLOUDS BELOW 12,000 FEET WITH NO
       SIGNIFICANT WEATHER AND/OR OBSTRUCTIONS TO VISIBILITY.

  * THESE STATIONS DO NOT REPORT WEATHER SUCH AS RAIN...SNOW OR FOG.

NEZ001>004-019>022-054>056-032000-
NEBRASKA PANHANDLE

CITY           SKY/WX    TMP DP  RH WIND       PRES   REMARKS
SCOTTSBLUFF    PTSUNNY   89  48  24 W3        29.89F
ALLIANCE       PTSUNNY   91  46  21 SW6       29.88F
CHADRON        PTSUNNY   95  44  17 CALM      29.80F HX  91
KIMBALL        LGT RAIN  77  46  33 NW3       29.97S
SIDNEY         CLOUDY    92  44  19 E3        29.92F
$$

NEZ057>060-069>072-079>082-032000-
SOUTHWEST NEBRASKA

CITY           SKY/WX    TMP DP  RH WIND       PRES   REMARKS
NORTH PLATTE   PTSUNNY   89  67  47 E9        29.81F HX  92
IMPERIAL       SUNNY     94  56  27 VRB6      29.83F HX  92
LEXINGTON      PTSUNNY   87  65  47 SE9       29.82F
MCCOOK         MOSUNNY   96  57  27 SE12G18   29.79F HX  95
OGALLALA       PTSUNNY   95  57  27 SE8       29.83F HX  94
$$

NEZ005>010-023>029-035>040-094-032000-
NORTH CENTRAL NEBRASKA

CITY           SKY/WX    TMP DP  RH WIND       PRES   REMARKS
VALENTINE      MOSUNNY   99  42  14 SE16      29.79F HX  94
AINSWORTH      MOSUNNY   94  58  30 E9        29.81F HX  93
BROKEN BOW     PTSUNNY   91  65  41 S9        29.81F HX  93
O`NEILL        SUNNY     90  68  48 SE12      29.81S HX  94
ORD            SUNNY     92  64  39 S12       29.78F HX  93
THEDFORD       MOSUNNY   95  60  30 SE10      29.82F HX  95
$$

NEZ041-046>049-061>064-073>077-083>087-032000-
SOUTH CENTRAL NEBRASKA

CITY           SKY/WX    TMP DP  RH WIND       PRES   REMARKS
GRAND ISLAND   SUNNY     93  63  36 SE16      29.82F HX  94
AURORA         SUNNY     91  66  43 S13       29.82S HX  93
HASTINGS       MOSUNNY   93  62  35 S16G24    29.81F HX  93
HEBRON         SUNNY     92  61  35 S14       29.83F HX  92
HOLDREGE       PTSUNNY   90  58  33 S15G21    29.81F
KEARNEY *      PTSUNNY   90  64  43 SE16G22   29.81F HX  91
YORK           SUNNY     90  66  45 S14       29.83F HX  92
$$

NEZ011>018-030>034-042>045-032000-
NORTHEAST NEBRASKA

CITY           SKY/WX    TMP DP  RH WIND       PRES   REMARKS
NORFOLK        SUNNY     88  70  55 SE14      29.81F HX  93
ALBION         SUNNY     86  69  56 SE10      29.82S
BLAIR          SUNNY     86  70  58 S10       29.85F HX  90
COLUMBUS *     SUNNY     88  68  51 S9        29.81F HX  91
FREMONT        SUNNY     87  68  52 SE9G18    29.84F HX  91
TEKAMAH        SUNNY     87  72  60 S12       29.83F HX  93
WAYNE          SUNNY     85  72  65 S14       29.83S HX  91
$$

NEZ050>053-065>068-078-088>093-032000-
SOUTHEAST NEBRASKA

CITY           SKY/WX    TMP DP  RH WIND       PRES   REMARKS
LINCOLN        SUNNY     93  69  45 S13       29.83F HX  98
OMAHA EPPLEY   MOSUNNY   90  69  50 S16       29.84F HX  94
BEATRICE       SUNNY     91  67  44 S15       29.84S HX  94
FALLS CITY     SUNNY     93  68  43 S14       29.86F HX  97
NEBRASKA CITY  SUNNY     91  59  33 S12G20    29.85F HX  90
PLATTSMOUTH    SUNNY     88  69  53 S9        29.85F HX  92
$$

NEZ044-045-051>053-067-032000-
OMAHA AREA

CITY           SKY/WX    TMP DP  RH WIND       PRES   REMARKS
OMAHA EPPLEY   MOSUNNY   90  69  50 S16       29.84F HX  94
BLAIR          SUNNY     86  70  58 S10       29.85F HX  90
FREMONT        SUNNY     87  68  52 SE9G18    29.84F HX  91
MILLARD        SUNNY     89  72  57 SE10G17   29.84F HX  96
OFFUTT AFB     SUNNY     90  71  53 S13       29.84F HX  96
PLATTSMOUTH    SUNNY     88  69  53 S9        29.85F HX  92
WAHOO          FAIR      88  71  56 SE10      29.84S HX  94
$$



USA.gov is the U.S. government's official web portal to all federal, state and local government web resources and services.